| time (UTC) | temp F | wind direction | speed knots | gust knots | rain 1hr in | rain 24hr in | rain mn in | humidity % | barometer mb |
| 20260905134037 | 53 | 259 | 0.0 | 0.0 | 0.00 | 0.01 | 0.00 | 1 | 1016.0 |
| 20260905133534 | 53 | 259 | 0.0 | 0.0 | 0.00 | 0.01 | 0.00 | 1 | 1016.1 |
| 20260905133034 | 53 | 259 | 0.0 | 0.0 | 0.00 | 0.01 | 0.00 | 1 | 1016.1 |
| 20260905132532 | 54 | 360 | 0.0 | 0.0 | 0.00 | 0.01 | 0.00 | 1 | 1016.0 |
| 20260905132031 | 54 | 360 | 0.0 | 0.0 | 0.00 | 0.01 | 0.00 | 1 | 1016.0 |
| 20260905131529 | 54 | 259 | 0.0 | 0.0 | 0.00 | 0.01 | 0.00 | 1 | 1016.0 |
| 20260905131027 | 54 | 259 | 0.0 | 0.0 | 0.00 | 0.01 | 0.00 | 1 | 1016.0 |
| 20260905130529 | 54 | 259 | 0.0 | 0.0 | 0.00 | 0.01 | 0.00 | 1 | 1016.0 |
| 20260905130025 | 54 | 259 | 0.0 | 0.0 | 0.00 | 0.01 | 0.00 | 1 | 1015.9 |
| 20260905125523 | 54 | 259 | 0.0 | 0.0 | 0.00 | 0.02 | 0.00 | 1 | 1015.9 |
| 20260905125022 | 54 | 259 | 0.0 | 0.0 | 0.00 | 0.02 | 0.00 | 1 | 1015.9 |
| 20260905124520 | 54 | 259 | 0.0 | 0.0 | 0.00 | 0.02 | 0.00 | 1 | 1016.0 |
| 20260905124018 | 54 | 259 | 0.0 | 0.0 | 0.00 | 0.02 | 0.00 | 1 | 1016.0 |
| 20260905123517 | 54 | 360 | 0.0 | 0.0 | 0.00 | 0.02 | 0.00 | 1 | 1015.9 |
| 20260905123016 | 54 | 259 | 0.0 | 0.0 | 0.00 | 0.02 | 0.00 | 1 | 1016.0 |
| 20260905122516 | 54 | 360 | 0.0 | 0.0 | 0.00 | 0.02 | 0.00 | 1 | 1016.0 |
| 20260905122015 | 54 | 259 | 0.0 | 0.0 | 0.00 | 0.02 | 0.00 | 1 | 1015.9 |
| 20260905121511 | 54 | 259 | 0.0 | 0.0 | 0.00 | 0.02 | 0.00 | 1 | 1016.0 |
| 20260905121012 | 54 | 259 | 0.0 | 0.0 | 0.00 | 0.02 | 0.00 | 1 | 1015.7 |
| 20260905120508 | 54 | 259 | 0.0 | 0.0 | 0.00 | 0.02 | 0.00 | 1 | 1015.8 |
| 20260905120019 | 54 | 259 | 0.0 | 0.0 | 0.00 | 0.03 | 0.00 | 1 | 1015.9 |
| 20260905115506 | 55 | 259 | 0.0 | 0.0 | 0.00 | 0.03 | 0.00 | 1 | 1015.8 |
| 20260905115004 | 55 | 360 | 0.0 | 0.0 | 0.00 | 0.03 | 0.00 | 1 | 1015.8 |
| 20260905114503 | 55 | 259 | 0.0 | 0.0 | 0.00 | 0.03 | 0.00 | 1 | 1015.8 |
| 20260905114001 | 55 | 259 | 0.0 | 0.0 | 0.00 | 0.03 | 0.00 | 1 | 1015.8 |
| 20260905113600 | 55 | 259 | 0.0 | 0.0 | 0.00 | 0.03 | 0.00 | 1 | 1015.8 |
| 20260905113100 | 55 | 259 | 0.0 | 0.0 | 0.00 | 0.03 | 0.00 | 2 | 1015.8 |
| 20260905112557 | 55 | 259 | 0.0 | 0.0 | 0.00 | 0.03 | 0.00 | 2 | 1015.7 |
| 20260905112055 | 55 | 360 | 0.0 | 0.0 | 0.00 | 0.03 | 0.00 | 3 | 1015.6 |
| 20260905111646 | 55 | 259 | 0.0 | 0.0 | 0.00 | 0.03 | 0.00 | 3 | 1015.7 |
| 20260905111052 | 55 | 259 | 0.0 | 0.0 | 0.00 | 0.03 | 0.00 | 3 | 1015.7 |
| 20260905110551 | 55 | 259 | 0.0 | 0.0 | 0.00 | 0.03 | 0.00 | 4 | 1015.6 |
| 20260905110049 | 55 | 259 | 0.0 | 0.0 | 0.00 | 0.03 | 0.00 | 6 | 1015.6 |
| 20260905105548 | 55 | 259 | 0.0 | 0.0 | 0.00 | 0.03 | 0.00 | 6 | 1015.5 |
| 20260905105046 | 56 | 360 | 0.0 | 0.0 | 0.00 | 0.03 | 0.00 | 8 | 1015.5 |
| 20260905104545 | 56 | 259 | 0.0 | 0.0 | 0.00 | 0.03 | 0.00 | 8 | 1015.6 |
| 20260905104043 | 56 | 259 | 0.0 | 0.0 | 0.00 | 0.03 | 0.00 | 8 | 1015.7 |
| 20260905103544 | 56 | 259 | 0.0 | 0.0 | 0.00 | 0.03 | 0.00 | 8 | 1015.7 |
| 20260905103041 | 56 | 259 | 0.0 | 0.0 | 0.00 | 0.03 | 0.00 | 7 | 1015.5 |
| 20260905102542 | 56 | 259 | 0.0 | 0.0 | 0.00 | 0.03 | 0.00 | 7 | 1015.5 |
| 20260905102038 | 56 | 259 | 0.0 | 0.0 | 0.00 | 0.03 | 0.00 | 6 | 1015.5 |
| 20260905101537 | 56 | 259 | 0.0 | 0.0 | 0.00 | 0.03 | 0.00 | 7 | 1015.5 |
| 20260905101034 | 56 | 259 | 0.0 | 0.0 | 0.00 | 0.03 | 0.00 | 7 | 1015.6 |
| 20260905100533 | 56 | 259 | 0.0 | 0.0 | 0.00 | 0.03 | 0.00 | 7 | 1015.6 |
| 20260905100031 | 56 | 259 | 0.0 | 0.0 | 0.00 | 0.03 | 0.00 | 7 | 1015.6 |
| 20260905095530 | 56 | 259 | 0.0 | 0.0 | 0.00 | 0.03 | 0.00 | 7 | 1015.6 |
| 20260905095032 | 56 | 259 | 0.0 | 0.0 | 0.00 | 0.03 | 0.00 | 7 | 1015.6 |
| 20260905094528 | 56 | 259 | 0.0 | 0.0 | 0.00 | 0.03 | 0.00 | 7 | 1015.7 |
| 20260905094026 | 56 | 259 | 0.0 | 0.0 | 0.00 | 0.03 | 0.00 | 8 | 1015.7 |
| 20260905093525 | 57 | 259 | 0.0 | 0.0 | 0.00 | 0.03 | 0.00 | 8 | 1015.8 |
| 20260905093024 | 57 | 259 | 0.0 | 0.0 | 0.00 | 0.03 | 0.00 | 8 | 1015.7 |
| 20260905092526 | 57 | 257 | 0.0 | 0.0 | 0.00 | 0.03 | 0.00 | 8 | 1015.6 |
| 20260905092020 | 57 | 265 | 0.0 | 0.0 | 0.00 | 0.03 | 0.00 | 7 | 1015.6 |
| 20260905091520 | 57 | 265 | 0.0 | 0.0 | 0.00 | 0.03 | 0.00 | 7 | 1015.5 |
| 20260905091018 | 57 | 265 | 0.0 | 0.0 | 0.00 | 0.03 | 0.00 | 6 | 1015.5 |
| 20260905090515 | 57 | 265 | 0.0 | 0.0 | 0.00 | 0.03 | 0.00 | 7 | 1015.6 |
| 20260905090016 | 57 | 256 | 0.0 | 0.0 | 0.00 | 0.03 | 0.00 | 8 | 1015.5 |
| 20260905085513 | 57 | 234 | 0.0 | 0.0 | 0.00 | 0.03 | 0.00 | 9 | 1015.5 |
| 20260905085013 | 57 | 234 | 0.0 | 0.0 | 0.00 | 0.03 | 0.00 | 10 | 1015.5 |
| 20260905084511 | 57 | 233 | 0.0 | 0.0 | 0.00 | 0.03 | 0.00 | 12 | 1015.4 |
| 20260905084013 | 57 | 230 | 0.0 | 0.0 | 0.00 | 0.03 | 0.00 | 12 | 1015.5 |
| 20260905083513 | 57 | 257 | 0.0 | 0.0 | 0.00 | 0.03 | 0.00 | 14 | 1015.6 |
| 20260905083010 | 57 | 257 | 0.0 | 0.0 | 0.00 | 0.03 | 0.00 | 16 | 1015.5 |
| 20260905082509 | 57 | 246 | 0.0 | 0.0 | 0.00 | 0.03 | 0.00 | 16 | 1015.5 |
| 20260905082009 | 57 | 239 | 0.0 | 0.0 | 0.00 | 0.03 | 0.00 | 17 | 1015.4 |
| 20260905081508 | 57 | 243 | 0.0 | 0.0 | 0.00 | 0.03 | 0.00 | 18 | 1015.3 |
| 20260905081007 | 57 | 237 | 0.0 | 0.0 | 0.00 | 0.03 | 0.00 | 18 | 1015.4 |
| 20260905080510 | 57 | 237 | 0.0 | 0.0 | 0.00 | 0.03 | 0.00 | 18 | 1015.3 |
| 20260905080006 | 57 | 237 | 0.0 | 0.0 | 0.00 | 0.03 | 0.00 | 17 | 1015.3 |
| 20260905075506 | 57 | 237 | 0.0 | 0.0 | 0.00 | 0.03 | 0.00 | 19 | 1015.3 |
| 20260905075008 | 57 | 237 | 0.0 | 0.0 | 0.00 | 0.03 | 0.00 | 18 | 1015.2 |
| 20260905074506 | 57 | 237 | 0.0 | 0.0 | 0.00 | 0.03 | 0.00 | 19 | 1015.2 |
| 20260905074004 | 57 | 237 | 0.0 | 0.0 | 0.00 | 0.03 | 0.00 | 21 | 1015.0 |
| 20260905073504 | 57 | 237 | 0.0 | 0.0 | 0.00 | 0.03 | 0.00 | 24 | 1015.1 |
| 20260905073002 | 57 | 237 | 0.0 | 0.0 | 0.00 | 0.03 | 0.00 | 26 | 1015.0 |
| 20260905072502 | 57 | 237 | 0.0 | 0.0 | 0.00 | 0.03 | 0.00 | 26 | 1015.0 |
| 20260905072001 | 57 | 237 | 0.0 | 0.0 | 0.00 | 0.03 | 0.00 | 28 | 1014.9 |
| 20260905071501 | 57 | 237 | 0.0 | 0.0 | 0.00 | 0.03 | 0.00 | 29 | 1014.9 |
| 20260905071100 | 57 | 237 | 0.0 | 0.0 | 0.00 | 0.03 | 0.00 | 29 | 1014.8 |
| 20260905070602 | 57 | 237 | 0.0 | 0.0 | 0.00 | 0.03 | 0.00 | 29 | 1014.8 |
| 20260905065556 | 58 | 237 | 0.0 | 0.0 | 0.00 | 0.03 | 0.03 | 31 | 1014.7 |
| 20260905065055 | 58 | 237 | 0.0 | 0.0 | 0.00 | 0.03 | 0.03 | 31 | 1014.7 |
| 20260905064611 | 58 | 237 | 0.0 | 0.0 | 0.00 | 0.03 | 0.03 | 32 | 1014.5 |
| 20260905064052 | 58 | 258 | 0.0 | 0.0 | 0.00 | 0.03 | 0.03 | 34 | 1014.6 |
| 20260905063550 | 58 | 258 | 0.0 | 0.0 | 0.00 | 0.03 | 0.03 | 34 | 1014.6 |
| 20260905063050 | 58 | 258 | 0.0 | 0.0 | 0.00 | 0.03 | 0.03 | 36 | 1014.6 |
| 20260905062548 | 58 | 258 | 0.0 | 0.0 | 0.00 | 0.03 | 0.03 | 37 | 1014.5 |
| 20260905062047 | 58 | 258 | 0.0 | 0.0 | 0.00 | 0.03 | 0.03 | 39 | 1014.6 |
| 20260905061545 | 58 | 258 | 0.0 | 0.0 | 0.00 | 0.03 | 0.03 | 43 | 1014.7 |
| 20260905061045 | 58 | 258 | 0.0 | 0.0 | 0.00 | 0.03 | 0.03 | 45 | 1014.6 |
| 20260905060542 | 58 | 258 | 0.0 | 0.0 | 0.00 | 0.03 | 0.03 | 47 | 1014.6 |
| 20260905060042 | 58 | 258 | 0.0 | 0.0 | 0.00 | 0.03 | 0.03 | 47 | 1014.6 |
| 20260905055539 | 58 | 258 | 0.0 | 0.0 | 0.00 | 0.03 | 0.03 | 48 | 1014.6 |
| 20260905055038 | 58 | 258 | 0.0 | 0.0 | 0.00 | 0.03 | 0.03 | 48 | 1014.7 |
| 20260905054546 | 58 | 258 | 0.0 | 0.0 | 0.00 | 0.03 | 0.03 | 47 | 1014.6 |
| 20260905054037 | 58 | 258 | 0.0 | 0.0 | 0.00 | 0.03 | 0.03 | 48 | 1014.6 |
| 20260905053534 | 58 | 260 | 0.0 | 0.0 | 0.00 | 0.03 | 0.03 | 51 | 1014.4 |
| 20260905053036 | 58 | 260 | 0.0 | 0.0 | 0.00 | 0.03 | 0.03 | 53 | 1014.4 |
| 20260905052531 | 58 | 260 | 0.0 | 0.0 | 0.00 | 0.03 | 0.03 | 54 | 1014.4 |
| 20260905052029 | 58 | 260 | 0.0 | 0.0 | 0.00 | 0.03 | 0.03 | 55 | 1014.3 |
| 20260905051540 | 58 | 260 | 0.0 | 0.0 | 0.00 | 0.03 | 0.03 | 55 | 1014.4 |
| 20260905051025 | 58 | 260 | 0.0 | 0.0 | 0.00 | 0.03 | 0.03 | 55 | 1014.5 |
| 20260905050527 | 58 | 260 | 0.0 | 0.0 | 0.00 | 0.03 | 0.03 | 54 | 1014.4 |
| 20260905050023 | 57 | 260 | 0.0 | 0.0 | 0.00 | 0.03 | 0.03 | 54 | 1014.4 |
| 20260905045521 | 57 | 260 | 0.0 | 0.0 | 0.00 | 0.03 | 0.03 | 55 | 1014.3 |
| 20260905045020 | 57 | 258 | 0.0 | 0.0 | 0.00 | 0.03 | 0.03 | 52 | 1014.3 |
| 20260905044519 | 57 | 259 | 0.0 | 0.0 | 0.00 | 0.03 | 0.03 | 51 | 1014.3 |
| 20260905044018 | 57 | 209 | 0.0 | 0.0 | 0.00 | 0.03 | 0.03 | 48 | 1014.3 |
| 20260905043516 | 57 | 202 | 0.0 | 0.0 | 0.00 | 0.03 | 0.03 | 43 | 1014.3 |
| 20260905043015 | 57 | 202 | 0.0 | 0.0 | 0.00 | 0.03 | 0.03 | 41 | 1014.2 |
| 20260905042513 | 57 | 360 | 0.0 | 0.0 | 0.00 | 0.03 | 0.03 | 40 | 1014.2 |
| 20260905042012 | 57 | 360 | 0.0 | 0.0 | 0.00 | 0.03 | 0.03 | 39 | 1014.2 |
| 20260905041511 | 57 | 360 | 0.0 | 0.0 | 0.00 | 0.03 | 0.03 | 37 | 1014.2 |
| 20260905041008 | 57 | 360 | 0.0 | 0.0 | 0.00 | 0.03 | 0.03 | 38 | 1014.2 |
| 20260905040507 | 57 | 180 | 0.0 | 0.0 | 0.00 | 0.03 | 0.03 | 35 | 1014.2 |
| 20260905040014 | 57 | 185 | 0.0 | 0.0 | 0.00 | 0.03 | 0.03 | 35 | 1014.1 |
| 20260905035504 | 57 | 360 | 0.0 | 0.0 | 0.00 | 0.03 | 0.03 | 36 | 1014.2 |
| 20260905035004 | 58 | 146 | 0.0 | 0.0 | 0.00 | 0.03 | 0.03 | 37 | 1014.1 |
| 20260905034504 | 58 | 360 | 0.0 | 0.0 | 0.00 | 0.03 | 0.03 | 40 | 1014.1 |
| 20260905034102 | 58 | 360 | 0.0 | 0.0 | 0.00 | 0.03 | 0.03 | 43 | 1014.0 |
| 20260905033559 | 58 | 360 | 0.0 | 0.0 | 0.00 | 0.03 | 0.03 | 48 | 1013.9 |
| 20260905033057 | 58 | 360 | 0.0 | 0.0 | 0.00 | 0.03 | 0.03 | 52 | 1014.0 |
| 20260905032558 | 59 | 360 | 0.0 | 0.0 | 0.00 | 0.03 | 0.03 | 56 | 1013.9 |
| 20260905032054 | 59 | 63 | 0.0 | 0.0 | 0.00 | 0.03 | 0.03 | 59 | 1013.9 |
| 20260905031556 | 60 | 63 | 0.0 | 0.0 | 0.00 | 0.03 | 0.03 | 60 | 1013.8 |
| 20260905031052 | 60 | 63 | 0.0 | 0.0 | 0.00 | 0.03 | 0.03 | 61 | 1013.7 |
| 20260905030550 | 60 | 63 | 0.0 | 0.0 | 0.00 | 0.03 | 0.03 | 62 | 1013.7 |
| 20260905025549 | 61 | 63 | 0.0 | 0.0 | 0.00 | 0.03 | 0.03 | 64 | 1013.6 |
| 20260905025047 | 61 | 261 | 0.0 | 0.0 | 0.00 | 0.03 | 0.03 | 64 | 1013.6 |
| 20260905024550 | 62 | 261 | 0.0 | 0.0 | 0.00 | 0.03 | 0.03 | 65 | 1013.6 |
| 20260905024044 | 62 | 261 | 0.0 | 0.0 | 0.00 | 0.03 | 0.03 | 65 | 1013.6 |
| 20260905023543 | 62 | 261 | 0.0 | 0.0 | 0.00 | 0.03 | 0.03 | 65 | 1013.6 |
| 20260905023042 | 62 | 261 | 0.0 | 0.0 | 0.00 | 0.03 | 0.03 | 66 | 1013.5 |
| 20260905022540 | 63 | 261 | 0.0 | 0.0 | 0.00 | 0.03 | 0.03 | 65 | 1013.5 |
| 20260905022039 | 63 | 264 | 0.0 | 0.0 | 0.00 | 0.03 | 0.03 | 66 | 1013.4 |
| 20260905021541 | 63 | 264 | 0.0 | 0.0 | 0.00 | 0.03 | 0.03 | 66 | 1013.5 |
| 20260905021035 | 63 | 264 | 0.0 | 0.0 | 0.00 | 0.03 | 0.03 | 66 | 1013.4 |
| 20260905020536 | 64 | 264 | 0.0 | 0.0 | 0.00 | 0.03 | 0.03 | 65 | 1013.4 |
| 20260905020032 | 64 | 279 | 0.0 | 0.0 | 0.00 | 0.03 | 0.03 | 65 | 1013.4 |
| 20260905015531 | 64 | 279 | 0.0 | 0.0 | 0.00 | 0.03 | 0.03 | 65 | 1013.4 |
| 20260905015030 | 64 | 276 | 0.0 | 0.0 | 0.00 | 0.03 | 0.03 | 65 | 1013.3 |
| 20260905014531 | 64 | 259 | 0.0 | 0.0 | 0.00 | 0.03 | 0.03 | 65 | 1013.2 |
| 20260905014027 | 64 | 277 | 0.0 | 0.0 | 0.00 | 0.03 | 0.03 | 65 | 1013.1 |
| 20260905013528 | 64 | 240 | 0.0 | 0.0 | 0.00 | 0.03 | 0.03 | 65 | 1013.2 |
| 20260905013025 | 64 | 290 | 0.0 | 0.0 | 0.00 | 0.03 | 0.03 | 65 | 1013.0 |
| 20260905012522 | 64 | 265 | 0.0 | 0.0 | 0.00 | 0.03 | 0.03 | 65 | 1013.0 |
| 20260905012021 | 65 | 286 | 0.0 | 0.0 | 0.00 | 0.03 | 0.03 | 65 | 1012.9 |
| 20260905011519 | 64 | 294 | 0.0 | 0.0 | 0.00 | 0.03 | 0.03 | 65 | 1012.9 |
| 20260905011019 | 64 | 271 | 0.0 | 0.0 | 0.00 | 0.03 | 0.03 | 64 | 1012.9 |
| 20260905010518 | 64 | 290 | 0.0 | 0.0 | 0.00 | 0.03 | 0.03 | 65 | 1013.0 |
| 20260905010016 | 64 | 243 | 0.0 | 0.0 | 0.00 | 0.12 | 0.03 | 65 | 1012.8 |
| 20260905005513 | 64 | 281 | 0.0 | 0.0 | 0.00 | 0.12 | 0.03 | 65 | 1012.8 |
| 20260905005012 | 64 | 292 | 0.0 | 0.0 | 0.00 | 0.12 | 0.03 | 65 | 1012.9 |
| 20260905004510 | 64 | 286 | 0.0 | 0.0 | 0.00 | 0.12 | 0.03 | 65 | 1012.8 |
| 20260905004009 | 64 | 283 | 0.0 | 0.0 | 0.00 | 0.12 | 0.03 | 65 | 1012.7 |
| 20260905003511 | 64 | 296 | 0.0 | 0.0 | 0.00 | 0.12 | 0.03 | 65 | 1012.6 |
| 20260905003009 | 64 | 287 | 0.0 | 0.0 | 0.00 | 0.12 | 0.03 | 65 | 1012.6 |
| 20260905002505 | 65 | 262 | 0.0 | 0.0 | 0.00 | 0.12 | 0.03 | 65 | 1012.7 |
| 20260905002003 | 65 | 281 | 0.0 | 0.0 | 0.00 | 0.12 | 0.03 | 64 | 1012.7 |
| 20260905001502 | 66 | 302 | 0.0 | 0.0 | 0.00 | 0.12 | 0.03 | 62 | 1012.7 |
| 20260905001100 | 66 | 279 | 0.0 | 0.0 | 0.00 | 0.12 | 0.03 | 62 | 1012.6 |
| 20260905000559 | 67 | 269 | 0.0 | 0.0 | 0.00 | 0.12 | 0.03 | 61 | 1012.6 |
| 20260905000103 | 67 | 281 | 0.0 | 0.0 | 0.00 | 0.12 | 0.03 | 61 | 1012.6 |
| 20260904235556 | 68 | 323 | 0.0 | 0.0 | 0.00 | 0.13 | 0.03 | 60 | 1012.5 |
| 20260904235054 | 67 | 303 | 0.0 | 0.0 | 0.00 | 0.13 | 0.03 | 61 | 1012.4 |
| 20260904234558 | 67 | 286 | 0.0 | 0.0 | 0.00 | 0.13 | 0.03 | 63 | 1012.3 |
| 20260904234053 | 67 | 288 | 0.0 | 0.0 | 0.00 | 0.13 | 0.03 | 61 | 1012.3 |
| 20260904233550 | 67 | 285 | 0.0 | 0.0 | 0.00 | 0.13 | 0.03 | 59 | 1012.3 |
| 20260904233051 | 67 | 293 | 0.0 | 0.0 | 0.00 | 0.13 | 0.03 | 57 | 1012.3 |
| 20260904232548 | 67 | 273 | 0.0 | 0.0 | 0.00 | 0.13 | 0.03 | 57 | 1012.4 |
| 20260904232045 | 66 | 260 | 0.0 | 0.0 | 0.00 | 0.13 | 0.03 | 57 | 1012.4 |
| 20260904231544 | 66 | 274 | 0.0 | 0.0 | 0.00 | 0.13 | 0.03 | 61 | 1012.3 |
| 20260904231043 | 65 | 232 | 0.0 | 0.0 | 0.00 | 0.13 | 0.03 | 62 | 1012.3 |
| 20260904230541 | 65 | 304 | 0.0 | 0.0 | 0.00 | 0.13 | 0.03 | 63 | 1012.4 |
| 20260904230040 | 65 | 296 | 0.0 | 0.0 | 0.00 | 0.13 | 0.03 | 63 | 1012.3 |
| 20260904225539 | 65 | 304 | 0.0 | 0.0 | 0.00 | 0.13 | 0.03 | 63 | 1012.4 |
| 20260904225038 | 65 | 292 | 0.0 | 0.0 | 0.00 | 0.13 | 0.03 | 63 | 1012.4 |
| 20260904224535 | 65 | 309 | 0.0 | 0.0 | 0.00 | 0.13 | 0.03 | 60 | 1012.3 |
| 20260904224034 | 65 | 281 | 0.0 | 0.0 | 0.00 | 0.13 | 0.03 | 60 | 1012.2 |
| 20260904223532 | 66 | 273 | 0.0 | 0.0 | 0.00 | 0.13 | 0.03 | 60 | 1012.3 |
| 20260904223043 | 66 | 275 | 0.0 | 0.0 | 0.00 | 0.13 | 0.03 | 60 | 1012.2 |
| 20260904222530 | 66 | 252 | 0.0 | 0.0 | 0.00 | 0.13 | 0.03 | 59 | 1012.1 |
| 20260904222029 | 66 | 284 | 0.0 | 0.0 | 0.00 | 0.13 | 0.03 | 58 | 1012.0 |
| 20260904221542 | 66 | 257 | 0.0 | 0.0 | 0.00 | 0.13 | 0.03 | 56 | 1012.0 |
| 20260904221025 | 66 | 257 | 0.0 | 0.0 | 0.00 | 0.13 | 0.03 | 55 | 1012.1 |
| 20260904220523 | 66 | 265 | 0.0 | 0.0 | 0.00 | 0.13 | 0.03 | 57 | 1012.2 |
| 20260904220022 | 66 | 241 | 0.0 | 0.0 | 0.00 | 0.13 | 0.03 | 58 | 1012.0 |
| 20260904215520 | 66 | 298 | 0.0 | 0.0 | 0.00 | 0.13 | 0.03 | 57 | 1012.1 |
| 20260904215020 | 66 | 277 | 0.0 | 0.0 | 0.00 | 0.13 | 0.03 | 55 | 1012.2 |
| 20260904214519 | 66 | 284 | 0.0 | 0.0 | 0.00 | 0.13 | 0.03 | 55 | 1012.1 |
| 20260904214016 | 67 | 262 | 0.0 | 0.0 | 0.00 | 0.13 | 0.03 | 56 | 1012.1 |
| 20260904213515 | 66 | 258 | 0.0 | 0.0 | 0.00 | 0.13 | 0.03 | 56 | 1012.1 |
| 20260904213016 | 66 | 219 | 0.0 | 0.0 | 0.00 | 0.13 | 0.03 | 58 | 1012.2 |
| 20260904212512 | 66 | 246 | 0.0 | 0.0 | 0.00 | 0.13 | 0.03 | 58 | 1012.2 |
| 20260904212011 | 66 | 305 | 0.0 | 0.0 | 0.01 | 0.13 | 0.03 | 60 | 1012.1 |
| 20260904211509 | 66 | 279 | 0.0 | 0.0 | 0.01 | 0.13 | 0.03 | 58 | 1012.1 |
| 20260904211011 | 66 | 298 | 0.0 | 0.0 | 0.01 | 0.13 | 0.03 | 59 | 1012.0 |
| 20260904210505 | 66 | 299 | 0.0 | 0.0 | 0.01 | 0.13 | 0.03 | 59 | 1012.1 |
| 20260904210004 | 66 | 296 | 0.0 | 0.0 | 0.01 | 0.13 | 0.03 | 60 | 1012.0 |
| 20260904205503 | 66 | 265 | 0.0 | 0.0 | 0.01 | 0.13 | 0.03 | 61 | 1012.1 |
| 20260904205002 | 65 | 281 | 0.0 | 0.0 | 0.01 | 0.13 | 0.03 | 64 | 1012.0 |
| 20260904204600 | 65 | 281 | 0.0 | 0.0 | 0.01 | 0.13 | 0.03 | 63 | 1012.0 |
| 20260904204059 | 64 | 273 | 0.0 | 0.0 | 0.01 | 0.13 | 0.03 | 63 | 1012.0 |
| 20260904203557 | 64 | 273 | 0.0 | 0.0 | 0.01 | 0.13 | 0.03 | 64 | 1012.1 |
| 20260904203056 | 64 | 273 | 0.0 | 0.0 | 0.01 | 0.13 | 0.03 | 63 | 1012.0 |
| 20260904202555 | 64 | 273 | 0.0 | 0.0 | 0.01 | 0.13 | 0.03 | 65 | 1012.2 |
| 20260904202053 | 64 | 273 | 0.0 | 0.0 | 0.00 | 0.12 | 0.02 | 64 | 1012.2 |
| 20260904201554 | 63 | 273 | 0.0 | 0.0 | 0.00 | 0.12 | 0.02 | 66 | 1012.3 |
| 20260904201050 | 63 | 272 | 0.0 | 0.0 | 0.00 | 0.12 | 0.02 | 67 | 1012.3 |
| 20260904200548 | 62 | 273 | 0.0 | 0.0 | 0.00 | 0.12 | 0.02 | 66 | 1012.4 |
| 20260904200108 | 62 | 273 | 0.0 | 0.0 | 0.00 | 0.12 | 0.02 | 66 | 1012.4 |
| 20260904195545 | 62 | 271 | 0.0 | 0.0 | 0.00 | 0.12 | 0.02 | 66 | 1012.4 |
| 20260904195047 | 62 | 282 | 0.0 | 0.0 | 0.00 | 0.12 | 0.02 | 66 | 1012.5 |
| 20260904194622 | 62 | 282 | 0.0 | 0.0 | 0.00 | 0.12 | 0.02 | 65 | 1012.5 |
| 20260904194041 | 61 | 281 | 0.0 | 0.0 | 0.00 | 0.12 | 0.02 | 66 | 1012.6 |
| 20260904193540 | 61 | 281 | 0.0 | 0.0 | 0.00 | 0.12 | 0.02 | 66 | 1012.6 |
| 20260904193043 | 61 | 281 | 0.0 | 0.0 | 0.00 | 0.12 | 0.02 | 65 | 1012.7 |
| 20260904192536 | 61 | 281 | 0.0 | 0.0 | 0.00 | 0.12 | 0.02 | 62 | 1012.8 |
| 20260904192036 | 61 | 281 | 0.0 | 0.0 | 0.00 | 0.12 | 0.02 | 62 | 1012.8 |
| 20260904191535 | 61 | 279 | 0.0 | 0.0 | 0.00 | 0.12 | 0.02 | 59 | 1012.7 |
| 20260904191032 | 61 | 282 | 0.0 | 0.0 | 0.00 | 0.12 | 0.02 | 55 | 1012.7 |
| 20260904190531 | 60 | 281 | 0.0 | 0.0 | 0.00 | 0.12 | 0.02 | 56 | 1012.8 |
| 20260904190029 | 60 | 275 | 0.0 | 0.0 | 0.00 | 0.12 | 0.02 | 57 | 1012.9 |
| 20260904185528 | 60 | 281 | 0.0 | 0.0 | 0.00 | 0.12 | 0.02 | 57 | 1013.0 |
| 20260904185026 | 60 | 274 | 0.0 | 0.0 | 0.00 | 0.12 | 0.02 | 55 | 1012.9 |
| 20260904184525 | 60 | 308 | 0.0 | 0.0 | 0.00 | 0.12 | 0.02 | 51 | 1012.9 |
| 20260904184024 | 60 | 309 | 0.0 | 0.0 | 0.00 | 0.12 | 0.02 | 48 | 1012.9 |
| 20260904183523 | 59 | 248 | 0.0 | 0.0 | 0.00 | 0.12 | 0.02 | 44 | 1012.9 |
| 20260904183021 | 59 | 248 | 0.0 | 0.0 | 0.00 | 0.12 | 0.02 | 48 | 1013.0 |
| 20260904182519 | 59 | 248 | 0.0 | 0.0 | 0.00 | 0.12 | 0.02 | 43 | 1013.0 |
| 20260904182018 | 58 | 248 | 0.0 | 0.0 | 0.00 | 0.12 | 0.02 | 45 | 1012.9 |
| 20260904181517 | 58 | 246 | 0.0 | 0.0 | 0.00 | 0.12 | 0.02 | 45 | 1012.8 |
| 20260904181015 | 58 | 244 | 0.0 | 0.0 | 0.00 | 0.12 | 0.02 | 37 | 1012.9 |
| 20260904180515 | 58 | 244 | 0.0 | 0.0 | 0.00 | 0.12 | 0.02 | 28 | 1012.9 |
| 20260904180012 | 58 | 244 | 0.0 | 0.0 | 0.00 | 0.12 | 0.02 | 29 | 1012.9 |
| 20260904175510 | 58 | 244 | 0.0 | 0.0 | 0.00 | 0.12 | 0.02 | 27 | 1012.8 |
| 20260904175009 | 58 | 244 | 0.0 | 0.0 | 0.00 | 0.12 | 0.02 | 35 | 1013.0 |
| 20260904174510 | 58 | 244 | 0.0 | 0.0 | 0.00 | 0.12 | 0.02 | 35 | 1012.9 |
| 20260904174007 | 58 | 244 | 0.0 | 0.0 | 0.00 | 0.12 | 0.02 | 24 | 1012.8 |
| 20260904173506 | 57 | 244 | 0.0 | 0.0 | 0.00 | 0.12 | 0.02 | 24 | 1012.9 |
| 20260904173005 | 57 | 244 | 0.0 | 0.0 | 0.00 | 0.12 | 0.02 | 19 | 1012.8 |
| 20260904172502 | 57 | 238 | 0.0 | 0.0 | 0.00 | 0.12 | 0.02 | 11 | 1012.9 |
| 20260904172001 | 56 | 238 | 0.0 | 0.0 | 0.00 | 0.12 | 0.02 | 1 | 1012.9 |
| 20260904171600 | 56 | 236 | 0.0 | 0.0 | 0.00 | 0.12 | 0.02 | 2 | 1012.8 |
| 20260904171059 | 55 | 236 | 0.0 | 0.0 | 0.00 | 0.12 | 0.02 | 4 | 1012.9 |
| 20260904170558 | 55 | 236 | 0.0 | 0.0 | 0.00 | 0.12 | 0.02 | 1 | 1012.9 |
| 20260904170056 | 54 | 236 | 0.0 | 0.0 | 0.00 | 0.12 | 0.02 | 1 | 1012.8 |
| 20260904165553 | 53 | 230 | 0.0 | 0.0 | 0.00 | 0.12 | 0.02 | 1 | 1012.9 |
| 20260904165052 | 53 | 230 | 0.0 | 0.0 | 0.00 | 0.12 | 0.02 | 1 | 1012.9 |
| 20260904164555 | 53 | 230 | 0.0 | 0.0 | 0.00 | 0.12 | 0.02 | 1 | 1012.8 |
| 20260904164052 | 53 | 230 | 0.0 | 0.0 | 0.00 | 0.12 | 0.02 | 1 | 1012.8 |
| 20260904163548 | 52 | 230 | 0.0 | 0.0 | 0.00 | 0.12 | 0.02 | 1 | 1012.7 |
| 20260904163046 | 52 | 230 | 0.0 | 0.0 | 0.00 | 0.12 | 0.02 | 1 | 1012.8 |
| 20260904162545 | 52 | 229 | 0.0 | 0.0 | 0.00 | 0.12 | 0.02 | 1 | 1012.8 |
| 20260904162043 | 52 | 230 | 0.0 | 0.0 | 0.00 | 0.12 | 0.02 | 1 | 1012.8 |
| 20260904161546 | 52 | 230 | 0.0 | 0.0 | 0.00 | 0.12 | 0.02 | 1 | 1012.8 |
| 20260904161042 | 52 | 230 | 0.0 | 0.0 | 0.00 | 0.12 | 0.02 | 1 | 1012.8 |
| 20260904160541 | 52 | 230 | 0.0 | 0.0 | 0.00 | 0.12 | 0.02 | 1 | 1012.9 |
| 20260904160040 | 52 | 229 | 0.0 | 0.0 | 0.00 | 0.12 | 0.02 | 1 | 1012.8 |
| 20260904155536 | 52 | 229 | 0.0 | 0.0 | 0.00 | 0.12 | 0.02 | 1 | 1012.8 |
| 20260904155034 | 52 | 229 | 0.0 | 0.0 | 0.00 | 0.12 | 0.02 | 1 | 1012.8 |
| 20260904154533 | 52 | 229 | 0.0 | 0.0 | 0.00 | 0.12 | 0.02 | 1 | 1012.9 |
| 20260904154032 | 52 | 229 | 0.0 | 0.0 | 0.00 | 0.12 | 0.02 | 1 | 1012.7 |
| 20260904153531 | 52 | 229 | 0.0 | 0.0 | 0.00 | 0.12 | 0.02 | 1 | 1012.7 |
| 20260904153029 | 51 | 229 | 0.0 | 0.0 | 0.00 | 0.12 | 0.02 | 1 | 1012.5 |
| 20260904152527 | 51 | 229 | 0.0 | 0.0 | 0.00 | 0.12 | 0.02 | 1 | 1012.6 |
| 20260904152026 | 51 | 229 | 0.0 | 0.0 | 0.00 | 0.12 | 0.02 | 1 | 1012.5 |
| 20260904151536 | 51 | 230 | 0.0 | 0.0 | 0.00 | 0.12 | 0.02 | 1 | 1012.4 |
| 20260904151024 | 51 | 230 | 0.0 | 0.0 | 0.00 | 0.12 | 0.02 | 1 | 1012.4 |
| 20260904150522 | 51 | 229 | 0.0 | 0.0 | 0.00 | 0.12 | 0.02 | 1 | 1012.5 |
| 20260904150025 | 51 | 229 | 0.0 | 0.0 | 0.00 | 0.12 | 0.02 | 1 | 1012.4 |
| 20260904145519 | 51 | 229 | 0.0 | 0.0 | 0.00 | 0.12 | 0.02 | 1 | 1012.4 |
| 20260904145018 | 51 | 229 | 0.0 | 0.0 | 0.00 | 0.12 | 0.02 | 1 | 1012.4 |
| 20260904144516 | 51 | 229 | 0.0 | 0.0 | 0.00 | 0.12 | 0.02 | 1 | 1012.3 |
| 20260904144014 | 51 | 229 | 0.0 | 0.0 | 0.00 | 0.12 | 0.02 | 1 | 1012.3 |
| 20260904143515 | 51 | 229 | 0.0 | 0.0 | 0.00 | 0.12 | 0.02 | 1 | 1012.3 |
| 20260904143012 | 51 | 226 | 0.0 | 0.0 | 0.00 | 0.12 | 0.02 | 1 | 1012.2 |
| 20260904142514 | 51 | 360 | 0.0 | 0.0 | 0.00 | 0.12 | 0.02 | 1 | 1012.1 |
| 20260904142009 | 51 | 360 | 0.0 | 0.0 | 0.00 | 0.12 | 0.02 | 1 | 1012.2 |
| 20260904141508 | 51 | 360 | 0.0 | 0.0 | 0.00 | 0.12 | 0.02 | 1 | 1012.2 |
| 20260904141010 | 51 | 360 | 0.0 | 0.0 | 0.00 | 0.12 | 0.02 | 1 | 1012.0 |
| 20260904140506 | 51 | 360 | 0.0 | 0.0 | 0.00 | 0.12 | 0.02 | 1 | 1012.0 |
| 20260904140004 | 51 | 360 | 0.0 | 0.0 | 0.00 | 0.12 | 0.02 | 1 | 1011.8 |
| 20260904135503 | 51 | 360 | 0.0 | 0.0 | 0.00 | 0.12 | 0.02 | 1 | 1011.7 |
| 20260904135101 | 51 | 360 | 0.0 | 0.0 | 0.00 | 0.12 | 0.02 | 1 | 1011.7 |
| 20260904134616 | 51 | 360 | 0.0 | 0.0 | 0.00 | 0.12 | 0.02 | 1 | 1011.7 |